JH0FOG-13 Weather Reports


time (UTC)temp
C
wind
direction
speed
KPH
gust
KPH
rain 1hr
cm
rain 24hr
cm
rain mn
cm
humidity
%
barometer
mb
20260505152001 7 199 0.0 4.8 0.00 0.00 0.00 85 1019.9
20260505124001 10 198 0.0 3.2 0.00 0.00 0.00 79 1020.2
20260505122001 10 190 0.0 1.6 0.00 0.00 0.00 78 1020.0
20260505120001 10 184 1.6 4.8 0.00 0.00 0.00 77 1019.7
20260505114001 11 167 1.6 4.8 0.00 0.03 0.00 76 1019.7
20260505112001 11 182 0.0 3.2 0.00 0.10 0.00 75 1019.6
20260505102001 13 178 1.6 4.8 0.00 0.43 0.00 68 1019.2
20260505100001 13 149 0.0 3.2 0.00 0.46 0.00 65 1019.1
20260505094001 14 0 0.0 0.0 0.00 0.48 0.00 64 1019.0
20260505092001 15 0 0.0 0.0 0.00 0.53 0.00 55 1018.7
20260505090001 16 209 0.0 3.2 0.00 0.53 0.00 53 1018.6
20260505084001 16 205 0.0 4.8 0.00 0.53 0.00 54 1018.3
20260505082001 18 317 1.6 8.0 0.00 0.53 0.00 41 1018.3
20260505080002 19 322 3.2 8.0 0.00 0.53 0.00 38 1018.5
20260505074002 18 330 1.6 6.4 0.00 0.53 0.00 43 1018.4
20260505072002 19 341 3.2 8.0 0.00 0.53 0.00 36 1018.5
20260505070001 19 319 3.2 9.7 0.00 0.53 0.00 38 1018.5
20260505064001 19 331 3.2 9.7 0.00 0.53 0.00 36 1018.6
20260505062001 18 316 6.4 12.9 0.00 0.53 0.00 38 1019.0
20260505060001 19 333 3.2 9.7 0.00 0.53 0.00 34 1019.0
20260505054001 18 318 4.8 12.9 0.00 0.53 0.00 35 1019.2
20260505052001 19 339 3.2 9.7 0.00 0.53 0.00 34 1019.6
20260505040002 19 320 4.8 17.7 0.00 0.53 0.00 32 1020.2
20260505034001 19 342 3.2 8.0 0.00 0.53 0.00 34 1020.3
20260505032001 18 317 8.0 19.3 0.00 0.56 0.00 37 1020.4
20260505030002 18 337 4.8 14.5 0.00 0.56 0.00 42 1020.5
20260505024001 18 349 1.6 8.0 0.00 0.61 0.00 43 1020.8
20260505022001 18 345 4.8 17.7 0.00 0.61 0.00 44 1021.0
20260505020001 18 176 3.2 11.3 0.00 0.64 0.00 43 1021.0
20260505014001 19 134 1.6 8.0 0.00 0.64 0.00 45 1021.0
20260505012001 17 35 3.2 11.3 0.00 0.69 0.00 45 1020.9
20260505010001 17 19 1.6 9.7 0.00 0.81 0.00 51 1020.8
20260505004001 17 56 1.6 6.4 0.00 1.09 0.00 56 1020.6
20260505002001 16 8 1.6 4.8 0.00 1.14 0.00 58 1020.6
20260505000001 16 154 1.6 8.0 0.00 1.14 0.00 57 1020.6
20260504234001 16 157 3.2 9.7 0.00 1.14 0.00 60 1020.4
20260504232001 15 112 0.0 6.4 0.00 1.14 0.00 63 1020.5
20260504230001 15 115 1.6 6.4 0.00 1.17 0.00 67 1020.4
20260504224001 13 71 1.6 8.0 0.00 1.22 0.00 68 1020.1
20260504222001 13 90 0.0 8.0 0.00 1.22 0.00 72 1019.9
20260504220001 12 37 0.0 6.4 0.00 1.22 0.00 75 1019.7
20260504214001 12 8 0.0 1.6 0.00 1.22 0.00 76 1019.6
20260504212001 11 28 0.0 4.8 0.00 1.24 0.00 81 1019.4
20260504210001 10 139 0.0 1.6 0.00 1.42 0.00 87 1019.2
20260504204001 8 0 0.0 0.0 0.00 1.75 0.00 92 1019.1
20260504202001 6 0 0.0 0.0 0.00 1.98 0.00 93 1018.9
20260504200001 6 0 0.0 0.0 0.00 2.26 0.00 92 1018.8
20260504194001 6 0 0.0 0.0 0.00 2.62 0.00 92 1018.3
20260504192001 7 209 0.0 1.6 0.00 3.07 0.00 92 1017.7
20260504190001 7 0 0.0 0.0 0.00 3.30 0.00 91 1017.6
20260504184001 7 0 0.0 0.0 0.00 3.33 0.00 91 1017.1
20260504182001 8 0 0.0 0.0 0.00 3.33 0.00 90 1017.0
20260504180001 8 0 0.0 0.0 0.00 3.33 0.00 89 1016.7
20260504174001 9 0 0.0 0.0 0.00 3.35 0.00 88 1016.7
20260504172001 9 0 0.0 0.0 0.00 3.38 0.00 88 1016.5